Regional Weather Roundup
Issued by NWS

Home | Current Version | Previous Version | Graphics & Text | Print | Product List | Glossary On
Versions: 1 2 3 4 5 6 7 8 9 10 11 12 13 14 15 16 17 18 19 20 21 22 23 24 25 26 27 28 29 30 31 32 33 34 35 36 37 38 39 40 41 42 43 44 45 46 47 48 49 50
753
ASUS43 KDMX 240206
RWRIA

WEATHER ROUNDUP FOR IOWA
NATIONAL WEATHER SERVICE DES MOINES IA
800 PM CST MON JAN 23 2017

NOTE: "FAIR" INDICATES FEW OR NO CLOUDS BELOW 12,000 FEET WITH NO
SIGNIFICANT WEATHER AND/OR OBSTRUCTIONS TO VISIBILITY.

* - THESE STATIONS ARE NOT NWS STATIONS...THUS NOT UNDER NWS
QUALITY CONTROL.  THEY ALSO DO NOT REPORT WEATHER SUCH
AS PRECIPITATION OR FOG.

IAZ001>003-012>014-020>022-031>034-043>046-240300-
   NORTHWEST IOWA

CITY           SKY/WX    TMP DP  RH WIND       PRES   REMARKS
CARROLL *      CLOUDY    32  32 100 E3        29.82F
CHEROKEE *     CLOUDY    32  31  96 CALM      29.83R
DENISON *      CLOUDY    32  30  93 SE5       29.81R WCI  27
LE MARS *      CLOUDY    32  28  86 SE6       29.84R WCI  26
ORANGE CITY *  CLOUDY    32  30  93 SE3       29.82S
SHELDON *      CLOUDY    32  32 100 E3        29.81S
SIOUX CITY     CLOUDY    34  30  85 SE8       29.83R WCI  27
SPENCER        CLOUDY    32  30  92 CALM      29.83S
STORM LAKE *   CLOUDY    32  30  93 SE5       29.82S WCI  27
$$

IAZ055>058-069>071-079>083-090>094-240300-
   SOUTHWEST IOWA

CITY           SKY/WX    TMP DP  RH WIND       PRES   REMARKS
ATLANTIC *     CLOUDY    32  30  93 SE6       29.84S WCI  26
AUDUBON *      CLOUDY    32  28  86 SE5       29.85R WCI  27
CLARINDA *     CLOUDY    32  30  93 S5        29.88R WCI  27
COUNCIL BLFS * CLOUDY    32  32 100 SE8       29.83S WCI  25
CRESTON *      CLOUDY    32  30  93 SE6       29.86R WCI  26
HARLAN  *      CLOUDY    32  32 100 SE7       29.87S WCI  26
LAMONI         CLOUDY    31  28  89 E5        29.85R WCI  26
RED OAK *      CLOUDY    32  30  93 SE7       29.85S WCI  26
SHENANDOAH *   CLOUDY    32  30  93 SE9       29.86S WCI  24
$$

IAZ047>049-059>061-072>074-084-240300-
   CENTRAL IOWA

CITY           SKY/WX    TMP DP  RH WIND       PRES   REMARKS
AMES           CLOUDY    33  31  92 CALM      29.85R
ANKENY *       CLOUDY    32  30  93 CALM      29.86S
BOONE *        CLOUDY    32  32 100 CALM      29.83S
CHARITON *     CLOUDY    32  30  93 CALM      29.85R
DES MOINES     CLOUDY    34  28  79 E3        29.85S
GRINNELL*      CLOUDY    32  30  92 NW3       29.85R
KNOXVILLE *    CLOUDY    32  28  86 NE3       29.83F
MARSHALLTOWN   CLOUDY    32  31  96 CALM      29.83R
NEWTON *       CLOUDY    32  30  93 CALM      29.85R
PELLA *        CLOUDY    32  30  90 CALM      29.87R
PERRY *        CLOUDY    33  31  90 E3        29.84S
$$

IAZ004>006-015-016-023>025-035-036-240300-
   NORTH CENTRAL IOWA

CITY           SKY/WX    TMP DP  RH WIND       PRES   REMARKS
ALGONA *       CLOUDY    32  32 100 CALM      29.84R
CLARION *      CLOUDY    32  32 100 CALM      29.84R
ESTHERVILLE    CLOUDY    31  28  89 CALM      29.83R
FORT DODGE *   CLOUDY    32  27  80 CALM      29.84S
MASON CITY     CLOUDY    32  28  85 N5        29.85R WCI  27
FOREST CITY *  CLOUDY    32  32 100 CALM      29.84R
WEBSTER CITY * CLOUDY    32 N/A N/A CALM      29.83R
IOWA FALLS *   CLOUDY    33  30  87 CALM      29.85R
$$

IAZ007>011-017>019-026>030-037>042-050>054-066-240300-
   NORTHEAST IOWA

CITY           SKY/WX    TMP DP  RH WIND       PRES   REMARKS
CEDAR RAPIDS   CLOUDY    32  29  88 NW5       29.84S WCI  27
CHARLES CITY * CLOUDY    32  32 100 CALM      29.84R
CLINTON *      CLOUDY    35  34  96 W7        29.84S WCI  29
DECORAH *      CLOUDY    32  30  93 CALM      29.81F
DUBUQUE        CLOUDY    34  32  92 W5        29.83R WCI  30
MONTICELLO *   CLOUDY    34  32  93 W6        29.84S WCI  29
OELWEIN *      CLOUDY    32  32 100 CALM      29.83F
WATERLOO       CLOUDY    33  28  81 NW3       29.84S
$$

IAZ064-065-067-068-078-240300-
   EAST CENTRAL IOWA

CITY           SKY/WX    TMP DP  RH WIND       PRES   REMARKS
DAVENPORT      CLOUDY    35  32  88 W6        29.84F WCI  30
IOWA CITY      CLOUDY    34  29  82 W6        29.86F WCI  29
MUSCATINE *    CLOUDY    36  30  80 NW6       29.86F WCI  31
QUAD CITIES    CLOUDY    37  32  82 W8        29.84F WCI  31
$$

IAZ062-063-075>077-085>089-095>099-240300-
   SOUTHEAST IOWA

CITY           SKY/WX    TMP DP  RH WIND       PRES   REMARKS
BURLINGTON     CLOUDY    35  31  85 NW5       29.86S WCI  31
FAIRFIELD *    CLOUDY    32  30  93 CALM      29.86R
FORT MADISON * CLOUDY    34  30  86 NW7       29.87S WCI  28
KEOKUK *       CLOUDY    36 N/A N/A NW7       29.87R WCI  30
OSKALOOSA *    CLOUDY    32  30  92 CALM      29.87R
CENTERVILLE *    N/A     32  32 100 CALM      29.87R
OTTUMWA        CLOUDY    33  28  81 N5        29.85R WCI  29
WASHINGTON *   CLOUDY    34  32  93 CALM      29.87R
$$

ABBREVIATIONS USED IN REMARKS
   TC - TEMPERATURES IN CELSIUS
  WCI - WIND CHILL INDEX
   HX - HEAT INDEX
  VSB - VISIBILITY
$$





USA.gov is the U.S. government's official web portal to all federal, state and local government web resources and services.